[[{"header":{"parameterUnit":"m.s-1","parameterCategory":1,"la1":30.2991,"la2":30.254,"lo1":-89.0895,"lo2":-89.0444,"dy":0.0017,"dx":0.0017,"nx":28,"ny":28,"refTime":"2024-04-05T21:00:00:Z","depth":0,"parameterNumber":2,"parameterNumberName":"U-component_of_WINDS"},"data":[0,0,0,0,0,0,0,0,0,0,0,0,0,0,0,0,0,0,0,0,0,0,0,0,0,0,0,0,0,0,0,0,0,0,0,0,0,0,0,0,0,0,0,0,0,0,0,0,0,0,0,0,0,0,0,0,0,0,1.2659,1.266,0,1.2684,1.2685,1.2685,1.2757,1.2758,1.276,1.2761,1.2785,1.2784,1.2783,0,0,0,0,0,0,0,0,0,0,0,0,0,1.2672,1.2672,1.2659,1.266,1.266,1.2684,1.2685,1.2685,1.2756,1.2758,1.276,1.2762,1.2785,1.2784,1.2783,0,0,0,0,0,0,0,0,0,0,0,0,0,1.2679,1.2672,1.2659,1.2699,1.2702,1.2684,1.2685,1.2685,1.2756,1.2758,1.2761,1.2763,1.2785,1.2784,1.2783,1.2728,0,0,1.2779,1.2779,0,0,0,0,0,0,0,0,1.2678,1.2678,1.2692,1.2696,1.27,1.272,1.2698,1.2699,1.2755,1.2736,1.2761,1.2764,1.2761,1.2762,1.2762,1.2729,1.273,1.2779,1.2778,1.2778,1.2777,0,0,0,0,0,0,0,1.2678,1.2678,1.2669,1.2693,1.2697,1.2715,1.2718,1.2699,1.2735,1.2737,1.2743,1.2745,1.2764,1.2763,1.2763,1.2731,1.2779,1.2778,1.2777,1.2777,1.2656,1.2654,0,0,0,0,0,0,1.2672,1.2677,1.2668,1.267,1.2695,1.2712,1.2716,1.2711,1.2735,1.2741,1.2743,1.2748,1.2764,1.2764,1.2764,1.2702,1.2778,1.2777,1.2776,1.2659,1.2656,1.2653,0,0,0,0,0,0,1.2672,1.2671,1.2667,1.2675,1.2676,1.271,1.2703,1.271,1.2709,1.2739,1.2746,1.2735,1.2765,1.2766,1.2737,1.2704,1.2776,1.2775,1.2661,1.2658,1.2654,1.2577,0,0,0,0,0,0,1.2672,1.267,1.265,1.2674,1.2675,1.264,1.2701,1.2709,1.2707,1.2714,1.2734,1.2739,1.2767,1.2738,1.2736,1.2703,1.2774,1.2665,1.266,1.2655,1.2582,1.2571,1.2561,0,0,0,0,0,1.2672,1.2626,1.2648,1.2647,1.265,1.2638,1.2639,1.2672,1.2704,1.2684,1.2704,1.2739,1.2708,1.2735,1.2732,1.2699,1.2667,1.2661,1.2656,1.2587,1.2573,1.2561,0,0,0,0,0,0,1.2596,1.263,1.2655,1.2615,1.2623,1.265,1.2625,1.2656,1.2655,1.2661,1.2703,1.2707,1.2672,1.2683,1.2713,1.2648,1.2693,1.2687,1.2642,1.2629,1.2618,1.2616,1.2773,0,0,0,0,0,1.2575,1.2562,1.2593,1.2555,1.2558,1.2591,1.2586,1.2612,1.2622,1.2625,1.2643,1.265,1.2643,1.2637,1.2631,1.2585,1.259,1.2561,1.255,1.2541,1.2535,1.2512,1.2499,1.2635,1.2635,1.2635,0,0,1.253,1.2547,1.2536,1.254,1.2549,1.2535,1.2593,1.2575,1.2565,1.2622,1.2597,1.261,1.2621,1.2584,1.2568,1.2592,1.2499,1.2534,1.2527,1.2525,1.2505,1.2492,1.2481,1.2631,1.2632,1.2632,0,0,1.2442,1.2453,1.2424,1.2432,1.2446,1.2469,1.2462,1.2484,1.2495,1.2471,1.2514,1.2502,1.2488,1.2495,1.2496,1.2412,1.2445,1.2409,1.2353,1.233,1.2319,1.231,1.228,1.2269,1.2403,1.2403,1.2403,0,1.2384,1.2365,1.2404,1.2384,1.2385,1.2437,1.2407,1.2414,1.2424,1.2423,1.245,1.2434,1.2445,1.241,1.239,1.2389,1.2383,1.2407,1.2318,1.2309,1.2301,1.2273,1.2262,1.2399,1.2399,1.24,1.24,0,1.2294,1.2281,1.2255,1.2265,1.2263,1.2238,1.2273,1.2266,1.2292,1.2312,1.2286,1.2302,1.2301,1.2295,1.232,1.2264,1.2278,1.2311,1.2357,1.2283,1.2257,1.2247,1.2392,1.2394,1.2395,1.2396,0,0,1.2156,1.2191,1.218,1.2186,1.2206,1.2196,1.2174,1.2174,1.2167,1.2174,1.2156,1.2144,1.2174,1.2176,1.2202,1.2182,1.2115,1.2218,1.2219,1.2198,1.2055,1.203,1.2017,1.2138,1.2136,1.2134,1.2054,0,1.2073,1.2038,1.2073,1.203,1.2018,1.2069,1.205,1.206,1.2078,1.2071,1.2091,1.2082,1.2123,1.2124,1.2107,1.2127,1.2087,1.2134,1.2121,1.212,1.2116,1.2004,1.1977,1.19,1.2044,1.2043,1.2041,0,1.197,1.1973,1.193,1.1954,1.195,1.1932,1.1936,1.1928,1.1941,1.1956,1.1959,1.1992,1.1972,1.2018,1.1991,1.2021,1.2019,1.2028,1.2026,1.2025,1.2076,1.2,1.1877,1.1865,1.2026,1.2027,1.2028,0,1.1874,1.1867,1.1841,1.1844,1.1872,1.1858,1.1869,1.1884,1.1883,1.1886,1.1885,1.1885,1.1885,1.1885,1.1917,1.1947,1.1886,1.1934,1.1897,1.1896,1.1881,1.1881,1.1756,1.188,1.188,1.1881,1.1881,0,1.1777,1.1748,1.1798,1.1781,1.1751,1.1792,1.1761,1.1777,1.179,1.1778,1.1822,1.1809,1.1852,1.1844,1.1869,1.1843,1.1843,1.1854,1.1861,1.185,1.1848,1.1848,1.1854,1.1878,1.1878,1.1879,1.1879,0,1.1664,1.1696,1.167,1.1699,1.1706,1.1682,1.1707,1.1693,1.1715,1.1699,1.1697,1.1731,1.1724,1.1757,1.1755,1.1772,1.1733,1.1749,1.1728,1.1733,1.1694,1.1697,1.1563,1.1547,1.1682,1.1681,1.168,0,1.1599,1.1578,1.1606,1.1601,1.161,1.1601,1.16,1.164,1.1637,1.1652,1.1636,1.1632,1.1632,1.1618,1.1642,1.1641,1.1657,1.161,1.1657,1.1647,1.1656,1.1657,1.1655,1.16,1.1598,1.1597,1.1596,0,1.1481,1.1498,1.1496,1.1498,1.1496,1.15,1.1507,1.1501,1.1544,1.1539,1.1532,1.1532,1.1531,1.1527,1.1531,1.1542,1.1576,1.1581,1.1573,1.1561,1.155,1.1555,1.1701,1.1584,1.1585,1.1586,1.1587,1.1587,1.139,1.1374,1.1391,1.1387,1.1397,1.1403,1.1391,1.1413,1.1409,1.1412,1.1436,1.1425,1.1439,1.1449,1.1457,1.1449,1.1471,1.1458,1.1455,1.1451,1.1444,1.1552,1.145,1.145,1.1451,1.1451,1.1451,0,1.1274,1.1288,1.1284,1.1293,1.1289,1.1323,1.1333,1.1328,1.1318,1.133,1.1329,1.1322,1.1319,1.1344,1.1344,1.1333,1.1348,1.1331,1.1332,1.1334,1.1425,1.1432,1.1319,1.1319,1.1319,1.1319,1.1319,1.1319,1.1213,1.1189,1.1208,1.1189,1.1204,1.1195,1.1197,1.1203,1.1212,1.1203,1.1201,1.1218,1.1235,1.1237,1.1236,1.1243,1.1241,1.1219,1.1231,1.1315,1.1328,1.134,1.1347,1.1218,1.1218,1.1142,1.1141,1.114]},{"header":{"parameterUnit":"m.s-1","parameterCategory":1,"la1":30.2991,"la2":30.254,"lo1":-89.0895,"lo2":-89.0444,"dy":0.0017,"dx":0.0017,"nx":28,"ny":28,"refTime":"2024-04-05T21:00:00:Z","depth":0,"parameterNumber":3,"parameterNumberName":"V-component_of_WINDS"},"data":[0,0,0,0,0,0,0,0,0,0,0,0,0,0,0,0,0,0,0,0,0,0,0,0,0,0,0,0,0,0,0,0,0,0,0,0,0,0,0,0,0,0,0,0,0,0,0,0,0,0,0,0,0,0,0,0,0,0,0.491,0.4911,0,0.4953,0.4953,0.4954,0.4926,0.4925,0.4924,0.4923,0.4968,0.4971,0.4973,0,0,0,0,0,0,0,0,0,0,0,0,0,0.4805,0.4807,0.491,0.4911,0.4911,0.4953,0.4953,0.4954,0.4927,0.4925,0.4923,0.4922,0.4968,0.4971,0.4973,0,0,0,0,0,0,0,0,0,0,0,0,0,0.4849,0.4807,0.491,0.4903,0.4902,0.4953,0.4953,0.4954,0.4927,0.4925,0.4923,0.4921,0.4967,0.497,0.4974,0.5035,0,0,0.4985,0.4986,0,0,0,0,0,0,0,0,0.4847,0.4853,0.4903,0.4903,0.4903,0.4932,0.4933,0.4981,0.4927,0.4918,0.4923,0.492,0.4958,0.4962,0.4975,0.5037,0.5039,0.4985,0.4987,0.4989,0.499,0,0,0,0,0,0,0,0.4844,0.4851,0.4927,0.4904,0.4904,0.4897,0.4901,0.4942,0.4948,0.4918,0.4916,0.4922,0.4958,0.4971,0.4976,0.504,0.4985,0.4988,0.4991,0.4992,0.5148,0.515,0,0,0,0,0,0,0.4841,0.4849,0.4926,0.4929,0.487,0.49,0.4905,0.4925,0.4948,0.4949,0.4923,0.492,0.4966,0.4971,0.4977,0.5046,0.4989,0.4992,0.4994,0.5146,0.5149,0.5151,0,0,0,0,0,0,0.4839,0.4848,0.4924,0.4888,0.4897,0.4904,0.4927,0.4927,0.494,0.4951,0.4953,0.4936,0.4965,0.4972,0.5019,0.5047,0.4994,0.4997,0.5144,0.5147,0.515,0.5186,0,0,0,0,0,0,0.4836,0.4848,0.4871,0.4889,0.4899,0.4966,0.4929,0.4929,0.4946,0.4943,0.4964,0.4965,0.4964,0.5014,0.5023,0.5051,0.5,0.5142,0.5145,0.5149,0.5182,0.519,0.5196,0,0,0,0,0,0.4832,0.4882,0.4873,0.4882,0.4929,0.4968,0.4974,0.497,0.4949,0.4972,0.4978,0.4965,0.5043,0.5019,0.5029,0.5059,0.514,0.5144,0.5149,0.5179,0.5188,0.5196,0,0,0,0,0,0,0.487,0.4884,0.4874,0.4931,0.4948,0.4963,0.4992,0.4981,0.5006,0.5001,0.4997,0.5002,0.505,0.506,0.5033,0.5116,0.5088,0.5094,0.5108,0.5117,0.5123,0.5119,0.5003,0,0,0,0,0,0.4884,0.4914,0.4925,0.4974,0.4983,0.4986,0.5003,0.4998,0.5017,0.5024,0.5034,0.5053,0.5081,0.51,0.5127,0.5184,0.5186,0.5209,0.5216,0.5222,0.5227,0.5253,0.5262,0.5165,0.5165,0.5165,0,0,0.4915,0.4926,0.4946,0.4981,0.4994,0.5024,0.4993,0.5027,0.5049,0.503,0.5073,0.5081,0.5101,0.5152,0.5176,0.5162,0.5254,0.5227,0.5232,0.5234,0.5259,0.5268,0.5276,0.5168,0.5168,0.5167,0,0,0.4985,0.4999,0.5038,0.505,0.5069,0.507,0.508,0.5096,0.5099,0.5143,0.5127,0.5154,0.5204,0.5217,0.523,0.5301,0.5288,0.531,0.5346,0.5372,0.5379,0.5386,0.5407,0.5415,0.5316,0.5316,0.5316,0,0.5021,0.5065,0.506,0.5094,0.5108,0.509,0.5128,0.5142,0.5169,0.5179,0.5163,0.5222,0.5235,0.5286,0.5303,0.5316,0.5324,0.5307,0.5379,0.5385,0.5391,0.5412,0.542,0.5318,0.5318,0.5318,0.5317,0,0.5106,0.5137,0.5167,0.519,0.5209,0.5245,0.5244,0.5263,0.5256,0.5258,0.5301,0.5315,0.5342,0.5355,0.535,0.5404,0.5395,0.5379,0.535,0.5403,0.5422,0.543,0.5321,0.5321,0.532,0.5319,0,0,0.5203,0.5219,0.523,0.5238,0.5256,0.5279,0.5314,0.5339,0.5353,0.5372,0.5399,0.544,0.5423,0.5439,0.5435,0.5458,0.5507,0.5439,0.5439,0.5448,0.5564,0.5573,0.5582,0.55,0.5501,0.5502,0.5561,0,0.5271,0.5329,0.5323,0.5378,0.5404,0.5385,0.5415,0.5428,0.5431,0.5453,0.5456,0.5483,0.5463,0.5471,0.5493,0.5497,0.553,0.5493,0.5522,0.5523,0.5515,0.5593,0.5604,0.5659,0.5569,0.557,0.5571,0,0.5358,0.5376,0.5433,0.5442,0.5453,0.5479,0.5499,0.5521,0.5535,0.5535,0.555,0.5541,0.5574,0.5545,0.5588,0.5563,0.5575,0.5578,0.558,0.5581,0.5549,0.5592,0.5676,0.5683,0.5583,0.5582,0.5581,0,0.5417,0.5457,0.5494,0.5503,0.5515,0.5533,0.554,0.5551,0.5565,0.5583,0.5591,0.5614,0.5625,0.5642,0.5638,0.5619,0.5681,0.5654,0.568,0.568,0.5693,0.5691,0.5776,0.5705,0.5705,0.5705,0.5705,0,0.5492,0.5527,0.552,0.5543,0.558,0.5572,0.5609,0.5614,0.5623,0.5646,0.5633,0.5654,0.565,0.5671,0.5669,0.5702,0.5709,0.5708,0.5706,0.5708,0.5707,0.5713,0.5708,0.5707,0.5707,0.5706,0.5706,0,0.5564,0.5561,0.56,0.5607,0.561,0.5637,0.5643,0.5663,0.5664,0.5692,0.5698,0.5699,0.5723,0.5721,0.5749,0.5747,0.5788,0.5784,0.5782,0.578,0.5805,0.5802,0.5895,0.5905,0.5831,0.5831,0.5832,0,0.561,0.5636,0.5644,0.5657,0.5664,0.5686,0.5699,0.5692,0.5706,0.5721,0.5739,0.5761,0.5778,0.5816,0.5819,0.5839,0.5833,0.5864,0.5836,0.5835,0.5829,0.5826,0.5827,0.5869,0.587,0.5871,0.5871,0,0.5692,0.5688,0.5706,0.5723,0.5738,0.5752,0.5764,0.5776,0.5769,0.5786,0.5808,0.5821,0.5847,0.5868,0.5886,0.5892,0.588,0.588,0.5887,0.5887,0.5883,0.5882,0.5794,0.5878,0.5877,0.5877,0.5876,0.5876,0.575,0.5769,0.5777,0.5797,0.5804,0.5815,0.5833,0.5835,0.5853,0.5872,0.5867,0.5892,0.5902,0.5924,0.5932,0.595,0.5939,0.595,0.5952,0.5954,0.5955,0.5882,0.5954,0.5954,0.5954,0.5954,0.5954,0,0.5827,0.583,0.5848,0.5863,0.5878,0.5865,0.5876,0.589,0.5911,0.592,0.5936,0.596,0.5979,0.5983,0.6,0.6014,0.6009,0.6019,0.6017,0.6017,0.5966,0.5956,0.6023,0.6023,0.6023,0.6023,0.6023,0.6023,0.5869,0.59,0.5896,0.593,0.5933,0.5956,0.5963,0.5972,0.5979,0.6005,0.602,0.6022,0.6028,0.6046,0.6062,0.6062,0.6068,0.608,0.6078,0.6029,0.6022,0.6015,0.6006,0.6082,0.6082,0.6127,0.6128,0.6128]}]]